Weather History for KFFA - November, 2012

Change the Weather History Date:

Thursday, November 1, 2012

  Actual Average (KMQI) Record (KMQI)
Temperature  
Mean Temperature 50 °F -  
Max Temperature 56 °F 64 °F 81 °F (1971)
Min Temperature 45 °F 52 °F 40 °F (1968)
Degree Days  
Heating Degree Days 14    
Moisture  
Dew Point 38 °F    
Average Humidity 63    
Maximum Humidity 80    
Minimum Humidity 51    
Precipitation  
Precipitation 0.00 in - - ()
Sea Level Pressure  
Sea Level Pressure 29.73 in    
Wind  
Wind Speed 8 mph (West)    
Max Wind Speed 14 mph    
Max Gust Speed 22 mph    
Visibility 10 miles    
Events      
Averages and records for this station are not official NWS values.
T = Trace of Precipitation, MM = Missing Value Source: NWS Daily Summary

Daily Weather History Graph

Daily Weather History Graph

Search for Another Location

Airport or City:

Trip Planner

Search our weather history database for the weather conditions in past years. The results will help you decide how hot, cold, wet, or windy it might be!

Date:

Astronomy

Nov. 01, 2012 Rise Set
Actual Time 7:25 AM EDT 6:06 PM EDT
Civil Twilight 6:59 AM EDT 6:32 PM EDT
Nautical Twilight 6:28 AM EDT 7:03 PM EDT
Astronomical Twilight 5:58 AM EDT 7:33 PM EDT
Moon 8:05 PM EDT (11/1) 9:52 AM EDT (11/1)
Length of Visible Light 11h 33m
Length of Day
10h 40m
Waning Gibbous, 93% of the Moon is Illuminated
Nov 1
Waning Gibbous
Nov 6
Last Quarter
Nov 13
New
Nov 20
First Quarter
Nov 28
Full

Hourly Weather History & Observations

Time (EDT) Temp. Windchill Dew Point Humidity Pressure Visibility Wind Dir Wind Speed Gust Speed Precip Events Conditions
12:15 AM 49.8 °F - 40.1 °F 69% 29.73 in 10.0 mi WSW 8.1 mph - N/A   Clear
12:35 AM 50.0 °F - 39.2 °F 66% 29.72 in 10.0 mi West 9.2 mph 17.3 mph N/A   Clear
12:55 AM 50.2 °F - 37.0 °F 61% 29.72 in 10.0 mi West 6.9 mph 17.3 mph N/A   Clear
1:15 AM 50.0 °F - 37.2 °F 62% 29.73 in 10.0 mi West 11.5 mph 17.3 mph N/A   Clear
1:35 AM 49.8 °F - 37.2 °F 62% 29.73 in 10.0 mi West 8.1 mph 16.1 mph N/A   Clear
2:15 AM 49.3 °F - 37.4 °F 64% 29.73 in 10.0 mi West 8.1 mph - N/A   Clear
2:35 AM 48.7 °F - 37.9 °F 66% 29.73 in 10.0 mi WSW 9.2 mph - N/A   Clear
2:55 AM 47.7 °F - 39.2 °F 72% 29.73 in 10.0 mi WSW 6.9 mph - N/A   Clear
3:15 AM 47.7 °F - 39.2 °F 72% 29.72 in 10.0 mi WSW 5.8 mph - N/A   Clear
3:35 AM 47.5 °F - 39.9 °F 75% 29.73 in 10.0 mi WSW 5.8 mph - N/A   Mostly Cloudy
4:15 AM 46.9 °F - 39.0 °F 74% 29.72 in 10.0 mi WSW 5.8 mph - N/A   Scattered Clouds
4:35 AM 46.6 °F - 38.5 °F 73% 29.73 in 10.0 mi WSW 5.8 mph - N/A   Clear
4:55 AM 46.2 °F 42.7 °F 39.0 °F 76% 29.73 in 10.0 mi WSW 6.9 mph - N/A   Clear
5:15 AM 46.0 °F 42.5 °F 39.4 °F 78% 29.73 in 10.0 mi WSW 6.9 mph - N/A   Clear
5:35 AM 45.9 °F 42.3 °F 39.4 °F 78% 29.73 in 10.0 mi WSW 6.9 mph - N/A   Clear
6:15 AM 46.0 °F 43.1 °F 37.9 °F 73% 29.72 in 10.0 mi WSW 5.8 mph - N/A   Clear
6:35 AM 45.5 °F 42.5 °F 38.7 °F 77% 29.73 in 10.0 mi SW 5.8 mph - N/A   Clear
7:15 AM 45.0 °F 41.2 °F 39.2 °F 80% 29.73 in 10.0 mi WSW 6.9 mph - N/A   Clear
7:35 AM 45.0 °F 42.6 °F 39.2 °F 80% 29.73 in 10.0 mi WSW 4.6 mph - N/A   Clear
7:55 AM 45.1 °F 42.0 °F 39.4 °F 80% 29.74 in 10.0 mi WSW 5.8 mph - N/A   Clear
8:15 AM 46.0 °F 42.5 °F 39.9 °F 79% 29.74 in 10.0 mi WSW 6.9 mph - N/A   Clear
8:35 AM 46.9 °F - 40.1 °F 77% 29.75 in 10.0 mi WSW 6.9 mph - N/A   Clear
8:55 AM 48.4 °F - 40.5 °F 74% 29.75 in 10.0 mi WSW 6.9 mph - N/A   Scattered Clouds
9:35 AM 49.1 °F - 39.2 °F 69% 29.76 in 10.0 mi WSW 9.2 mph - N/A   Scattered Clouds
9:55 AM 49.1 °F - 38.3 °F 66% 29.76 in 10.0 mi West 9.2 mph 17.3 mph N/A   Clear
10:15 AM 50.0 °F - 38.7 °F 65% 29.76 in 10.0 mi West 9.2 mph 16.1 mph N/A   Clear
10:35 AM 50.9 °F - 38.8 °F 63% 29.76 in 10.0 mi West 11.5 mph 17.3 mph N/A   Clear
10:55 AM 51.3 °F - 38.1 °F 61% 29.76 in 10.0 mi WSW 10.4 mph 18.4 mph N/A   Clear
11:15 AM 51.8 °F - 38.3 °F 60% 29.75 in 10.0 mi West 11.5 mph 18.4 mph N/A   Clear
11:35 AM 52.3 °F - 38.3 °F 59% 29.75 in 10.0 mi West 13.8 mph 19.6 mph N/A   Clear
11:55 AM 52.7 °F - 37.2 °F 56% 29.75 in 10.0 mi West 11.5 mph 19.6 mph N/A   Clear
12:15 PM 53.2 °F - 36.9 °F 54% 29.74 in 10.0 mi West 11.5 mph 19.6 mph N/A   Clear
12:35 PM 53.2 °F - 36.7 °F 53% 29.73 in 10.0 mi West 13.8 mph 19.6 mph N/A   Clear
12:55 PM 53.6 °F - 36.9 °F 53% 29.72 in 10.0 mi West 10.4 mph 19.6 mph N/A   Clear
1:15 PM 53.8 °F - 37.2 °F 54% 29.71 in 10.0 mi West 10.4 mph 21.9 mph N/A   Clear
1:35 PM 54.3 °F - 38.1 °F 54% 29.70 in 10.0 mi West 12.7 mph 18.4 mph N/A   Clear
2:15 PM 54.9 °F - 38.3 °F 54% 29.69 in 10.0 mi West 9.2 mph 16.1 mph N/A   Clear
2:35 PM 55.2 °F - 38.3 °F 53% 29.69 in 10.0 mi West 10.4 mph 18.4 mph N/A   Clear
2:55 PM 55.4 °F - 38.5 °F 53% 29.69 in 10.0 mi West 6.9 mph 18.4 mph N/A   Clear
3:15 PM 56.1 °F - 38.8 °F 52% 29.69 in 10.0 mi West 11.5 mph - N/A   Clear
3:35 PM 56.1 °F - 37.9 °F 51% 29.69 in 10.0 mi West 9.2 mph 20.7 mph N/A   Clear
3:55 PM 56.3 °F - 38.5 °F 51% 29.69 in 10.0 mi West 8.1 mph - N/A   Clear
4:15 PM 55.8 °F - 39.2 °F 54% 29.69 in 10.0 mi West 8.1 mph - N/A   Clear
4:35 PM 55.0 °F - 39.2 °F 55% 29.69 in 10.0 mi West 6.9 mph 17.3 mph N/A   Scattered Clouds
4:55 PM 54.7 °F - 39.0 °F 56% 29.70 in 10.0 mi West 10.4 mph 17.3 mph N/A   Clear
5:15 PM 54.0 °F - 38.8 °F 57% 29.70 in 10.0 mi West 10.4 mph 16.1 mph N/A   Clear
5:35 PM 53.8 °F - 38.5 °F 56% 29.71 in 10.0 mi West 10.4 mph - N/A   Scattered Clouds
5:55 PM 53.2 °F - 39.0 °F 59% 29.71 in 10.0 mi West 8.1 mph - N/A   Mostly Cloudy
6:15 PM 53.4 °F - 39.2 °F 59% 29.72 in 10.0 mi West 9.2 mph - N/A   Overcast
6:35 PM 53.4 °F - 38.7 °F 57% 29.73 in 10.0 mi West 6.9 mph - N/A   Overcast
6:55 PM 53.4 °F - 37.6 °F 55% 29.74 in 10.0 mi West 9.2 mph - N/A   Overcast
7:15 PM 53.2 °F - 37.9 °F 56% 29.75 in 10.0 mi West 6.9 mph 17.3 mph N/A   Overcast
7:35 PM 53.2 °F - 37.0 °F 54% 29.75 in 10.0 mi West 9.2 mph 16.1 mph N/A   Overcast
7:55 PM 53.2 °F - 37.4 °F 55% 29.75 in 10.0 mi West 8.1 mph - N/A   Overcast
8:15 PM 53.2 °F - 37.4 °F 55% 29.76 in 10.0 mi West 10.4 mph 19.6 mph N/A   Overcast
8:35 PM 53.2 °F - 37.4 °F 55% 29.76 in 10.0 mi West 9.2 mph - N/A   Overcast
8:55 PM 53.1 °F - 37.6 °F 56% 29.76 in 10.0 mi West 10.4 mph 16.1 mph N/A   Overcast
9:15 PM 52.7 °F - 37.9 °F 57% 29.76 in 10.0 mi WNW 11.5 mph 18.4 mph N/A   Mostly Cloudy
9:35 PM 52.0 °F - 38.1 °F 59% 29.77 in 10.0 mi WNW 9.2 mph - N/A   Scattered Clouds
9:55 PM 51.4 °F - 38.1 °F 60% 29.77 in 10.0 mi WNW 6.9 mph - N/A   Scattered Clouds
10:15 PM 51.1 °F - 38.5 °F 62% 29.78 in 10.0 mi WNW 9.2 mph - N/A   Scattered Clouds
10:35 PM 50.9 °F - 38.7 °F 63% 29.78 in 10.0 mi WNW 8.1 mph - N/A   Clear
10:55 PM 50.9 °F - 38.8 °F 63% 29.78 in 10.0 mi WNW 4.6 mph - N/A   Mostly Cloudy
11:15 PM 51.4 °F - 38.3 °F 61% 29.79 in 10.0 mi West 10.4 mph 17.3 mph N/A   Overcast
11:35 PM 51.8 °F - 37.2 °F 58% 29.78 in 10.0 mi West 10.4 mph - N/A   Overcast
11:55 PM 51.4 °F - 37.4 °F 59% 29.78 in 10.0 mi WNW 10.4 mph 18.4 mph N/A   Scattered Clouds